TimeEST,TemperatureF,Dew PointF,Humidity,Sea Level PressureIn,VisibilityMPH,Wind Direction,Wind SpeedMPH,Gust SpeedMPH,PrecipitationIn,Events,Conditions,WindDirDegrees,DateUTC
12:54 AM,36.0,27.0,70,30.11,10.0,NNW,8.1,-,N/A,,Overcast,340,2012-11-04 04:54:00
1:54 AM,36.0,27.0,70,30.10,10.0,NNW,9.2,-,N/A,,Overcast,330,2012-11-04 05:54:00
1:54 AM,35.6,26.6,70,30.09,10.0,WNW,5.8,-,N/A,,Light Drizzle,290,2012-11-04 06:54:00
2:54 AM,35.1,28.0,76,30.10,7.0,NW,3.5,-,0.00,Snow,Light Snow,310,2012-11-04 07:54:00
3:54 AM,33.1,28.9,85,30.11,4.0,NNW,5.8,-,0.01,Snow,Light Snow,340,2012-11-04 08:54:00
4:54 AM,33.1,30.0,89,30.13,9.0,NNW,4.6,-,0.00,Snow,Light Snow,330,2012-11-04 09:54:00
5:49 AM,33.8,30.2,87,30.10,3.0,NW,4.6,-,0.00,Snow,Light Snow,320,2012-11-04 10:49:00
5:54 AM,33.1,30.9,92,30.13,4.0,NW,5.8,-,0.00,Snow,Light Snow,320,2012-11-04 10:54:00
6:43 AM,33.8,30.2,87,30.10,9.0,WNW,8.1,-,0.00,Snow,Light Snow,300,2012-11-04 11:43:00
6:54 AM,33.1,30.0,89,30.12,7.0,NW,6.9,-,0.00,Snow,Light Snow,310,2012-11-04 11:54:00
7:48 AM,33.8,28.4,81,30.10,10.0,NW,5.8,-,0.00,,Overcast,320,2012-11-04 12:48:00
7:54 AM,34.0,28.9,82,30.13,10.0,NW,5.8,-,0.00,,Overcast,320,2012-11-04 12:54:00
8:54 AM,34.0,28.9,82,30.13,10.0,NW,10.4,-,N/A,,Overcast,310,2012-11-04 13:54:00
9:54 AM,34.0,27.0,75,30.13,10.0,NW,8.1,-,0.00,Snow,Light Snow,310,2012-11-04 14:54:00
10:54 AM,34.0,26.1,73,30.14,10.0,NW,10.4,-,0.00,,Overcast,310,2012-11-04 15:54:00
11:54 AM,35.1,26.1,70,30.12,10.0,NW,8.1,-,N/A,,Overcast,320,2012-11-04 16:54:00
12:54 PM,35.1,25.0,67,30.12,10.0,WNW,8.1,-,N/A,,Overcast,300,2012-11-04 17:54:00
1:54 PM,35.1,26.1,70,30.12,10.0,NW,8.1,-,N/A,,Overcast,310,2012-11-04 18:54:00
2:54 PM,35.1,25.0,67,30.12,10.0,NNW,10.4,-,N/A,,Overcast,330,2012-11-04 19:54:00
3:54 PM,35.1,25.0,67,30.12,10.0,NW,6.9,-,N/A,,Overcast,310,2012-11-04 20:54:00
4:54 PM,35.1,25.0,67,30.12,10.0,NW,5.8,-,N/A,,Overcast,310,2012-11-04 21:54:00
5:54 PM,35.1,26.1,70,30.13,10.0,WNW,5.8,-,N/A,,Overcast,290,2012-11-04 22:54:00
6:54 PM,35.1,27.0,72,30.13,10.0,WNW,3.5,-,N/A,,Overcast,300,2012-11-04 23:54:00
7:54 PM,35.1,27.0,72,30.13,10.0,WNW,4.6,-,N/A,,Overcast,300,2012-11-05 00:54:00
8:54 PM,35.1,27.0,72,30.13,10.0,NNW,4.6,-,N/A,,Overcast,340,2012-11-05 01:54:00
9:54 PM,35.1,26.1,70,30.13,10.0,North,5.8,-,N/A,,Overcast,360,2012-11-05 02:54:00
10:54 PM,35.1,26.1,70,30.13,10.0,NNW,5.8,-,N/A,,Overcast,340,2012-11-05 03:54:00